EA6DT Weather Reports


time (UTC)temp
C
wind
direction
speed
KPH
gust
KPH
rain 1hr
cm
rain 24hr
cm
rain mn
cm
humidity
%
barometer
mb
20260505041401 15 221 1.6 0.0 0.00 0.00 0.00 94 1012.6
20260505040831 15 250 1.6 0.0 0.00 0.00 0.00 94 1012.7
20260505040342 15 262 1.6 0.0 0.00 0.00 0.00 94 1012.7
20260505035826 15 245 1.6 0.0 0.00 0.00 0.00 94 1012.6
20260505035333 16 360 0.0 0.0 0.00 0.00 0.00 94 1012.7
20260505034843 16 271 1.6 0.0 0.00 0.00 0.00 94 1012.6
20260505034334 16 259 3.2 0.0 0.00 0.00 0.00 94 1012.7
20260505033844 16 262 3.2 0.0 0.00 0.00 0.00 94 1012.7
20260505033334 16 259 3.2 0.0 0.00 0.00 0.00 94 1012.8
20260505032840 16 360 3.2 0.0 0.00 0.00 0.00 94 1012.8
20260505032332 16 267 3.2 0.0 0.00 0.00 0.00 94 1012.8
20260505031843 16 259 3.2 0.0 0.00 0.00 0.00 94 1012.8
20260505031333 16 233 3.2 0.0 0.00 0.00 0.00 94 1012.8
20260505030844 16 266 3.2 0.0 0.00 0.00 0.00 94 1012.9
20260505030336 16 222 3.2 0.0 0.00 0.00 0.00 94 1012.9
20260505025835 16 360 4.8 0.0 0.00 0.00 0.00 94 1012.9
20260505025346 16 258 4.8 0.0 0.00 0.00 0.00 94 1013.0
20260505024856 16 257 4.8 0.0 0.00 0.00 0.00 94 1013.0
20260505024346 16 360 4.8 0.0 0.00 0.00 0.00 94 1013.0
20260505023832 16 360 4.8 0.0 0.00 0.00 0.00 94 1013.0
20260505023342 16 360 6.4 0.0 0.00 0.00 0.00 94 1013.0
20260505022833 16 360 6.4 0.0 0.00 0.00 0.00 94 1013.0
20260505022344 16 360 8.0 0.0 0.00 0.00 0.00 94 1013.0
20260505021834 16 272 6.4 0.0 0.00 0.00 0.00 94 1013.1
20260505021340 16 360 8.0 0.0 0.00 0.00 0.00 94 1013.1
20260505020830 16 360 8.0 0.0 0.00 0.00 0.00 94 1013.1
20260505020341 16 360 8.0 0.0 0.00 0.00 0.00 94 1013.1
20260505015844 16 360 8.0 0.0 0.00 0.00 0.00 94 1013.1
20260505015355 16 360 6.4 0.0 0.00 0.00 0.00 94 1013.2
20260505014841 16 360 8.0 0.0 0.00 0.00 0.00 94 1013.2
20260505014332 16 360 8.0 0.0 0.00 0.00 0.00 94 1013.3
20260505013842 16 260 8.0 0.0 0.00 0.00 0.00 94 1013.3
20260505013332 16 360 8.0 0.0 0.00 0.00 0.00 94 1013.3
20260505012842 16 360 8.0 0.0 0.00 0.00 0.00 94 1013.3
20260505012329 16 360 6.4 0.0 0.00 0.00 0.00 94 1013.3
20260505011840 16 360 8.0 0.0 0.00 0.00 0.00 94 1013.3
20260505011329 16 360 8.0 0.0 0.00 0.00 0.00 94 1013.4
20260505010839 16 238 8.0 0.0 0.00 0.00 0.00 94 1013.4
20260505010330 16 360 8.0 0.0 0.00 0.00 0.00 94 1013.6
20260505005850 16 360 8.0 0.0 0.00 0.00 0.00 94 1013.6
20260505005359 16 360 6.4 0.0 0.00 0.00 0.00 94 1013.7
20260505004848 16 248 6.4 0.0 0.00 0.00 0.00 94 1013.7
20260505004336 16 360 6.4 0.0 0.00 0.00 0.00 94 1013.8
20260505003842 16 257 6.4 0.0 0.00 0.00 0.00 94 1013.9
20260505003412 16 360 6.4 0.0 0.00 0.00 0.00 94 1013.9
20260505002837 16 360 6.4 0.0 0.00 0.00 0.00 94 1013.9
20260505002328 16 360 6.4 0.0 0.00 0.00 0.00 94 1013.9
20260505001838 16 360 4.8 0.0 0.00 0.00 0.00 94 1013.9
20260505001341 16 360 4.8 0.0 0.00 0.00 0.00 94 1013.9
20260505000831 16 267 4.8 0.0 0.00 0.00 0.00 94 1013.9
20260505000402 16 360 6.4 0.0 0.00 0.00 0.00 94 1014.0
20260504235835 16 244 6.4 0.0 0.00 0.00 0.00 94 1014.0
20260504235346 16 360 6.4 0.0 0.00 0.00 0.00 94 1014.0
20260504234836 16 360 6.4 0.0 0.00 0.00 0.00 94 1014.0
20260504234407 16 360 6.4 0.0 0.00 0.00 0.00 94 1014.0
20260504233835 16 221 6.4 0.0 0.00 0.00 0.00 94 1014.1
20260504233342 16 360 4.8 0.0 0.00 0.00 0.00 94 1014.1
20260504232851 16 360 4.8 0.0 0.00 0.00 0.00 94 1014.1
20260504232342 16 245 4.8 0.0 0.00 0.00 0.00 94 1014.1
20260504231853 16 360 4.8 0.0 0.00 0.00 0.00 94 1014.1
20260504231358 16 236 4.8 0.0 0.00 0.00 0.00 94 1014.1
20260504230827 16 246 6.4 0.0 0.00 0.00 0.00 94 1014.0
20260504230339 16 360 4.8 0.0 0.00 0.00 0.00 94 1014.1
20260504225844 16 360 4.8 0.0 0.00 0.00 0.00 94 1014.0
20260504225335 16 360 4.8 0.0 0.00 0.00 0.00 94 1014.0
20260504224841 16 360 6.4 0.0 0.00 0.00 0.00 94 1014.1
20260504224332 16 360 6.4 0.0 0.00 0.00 0.00 93 1014.1
20260504223842 16 253 4.8 0.0 0.00 0.00 0.00 93 1014.2
20260504223332 16 360 4.8 0.0 0.00 0.00 0.00 93 1014.1
20260504222842 16 212 4.8 0.0 0.00 0.00 0.00 93 1014.1
20260504222329 16 250 4.8 0.0 0.00 0.00 0.00 93 1014.1
20260504221839 16 248 4.8 0.0 0.00 0.00 0.00 93 1014.1
20260504221349 16 237 4.8 0.0 0.00 0.00 0.00 93 1014.1
20260504220838 16 247 4.8 0.0 0.00 0.00 0.00 93 1014.1
20260504220329 16 360 4.8 0.0 0.00 0.00 0.00 93 1014.2
20260504215828 16 360 4.8 0.0 0.00 0.00 0.00 93 1014.1
20260504215358 16 259 4.8 0.0 0.00 0.00 0.00 93 1014.2
20260504214828 16 360 4.8 0.0 0.00 0.00 0.00 93 1014.2
20260504214338 16 251 4.8 0.0 0.00 0.00 0.00 93 1014.2
20260504213829 16 360 6.4 0.0 0.00 0.00 0.00 93 1014.2
20260504213335 16 258 4.8 0.0 0.00 0.00 0.00 93 1014.2
20260504212845 16 360 4.8 0.0 0.00 0.00 0.00 92 1014.3
20260504212335 16 242 4.8 0.0 0.00 0.00 0.00 92 1014.2
20260504211845 17 241 6.4 0.0 0.00 0.00 0.00 92 1014.2
20260504211336 17 360 6.4 0.0 0.00 0.00 0.00 92 1014.1
20260504210902 17 233 4.8 0.0 0.00 0.00 0.00 92 1014.1
20260504210331 17 246 4.8 0.0 0.00 0.00 0.00 92 1014.2
20260504205834 17 237 4.8 0.0 0.00 0.00 0.00 92 1014.1
20260504205345 17 268 3.2 0.0 0.00 0.00 0.00 92 1014.2
20260504204832 17 255 4.8 0.0 0.00 0.00 0.00 92 1014.2
20260504204343 17 248 4.8 0.0 0.00 0.00 0.00 91 1014.2
20260504203852 17 225 4.8 0.0 0.00 0.00 0.00 91 1014.2
20260504203342 17 232 4.8 0.0 0.00 0.00 0.00 91 1014.1
20260504202832 17 214 4.8 0.0 0.00 0.00 0.00 91 1014.0
20260504202339 17 253 4.8 0.0 0.00 0.00 0.00 90 1013.9
20260504201829 17 360 4.8 0.0 0.00 0.00 0.00 90 1013.8
20260504201341 17 360 6.4 0.0 0.00 0.00 0.00 90 1013.8
20260504200852 17 360 6.4 0.0 0.00 0.00 0.00 90 1013.8
20260504200341 17 360 4.8 0.0 0.00 0.00 0.00 90 1013.8
20260504195840 17 248 6.4 0.0 0.00 0.00 0.00 90 1013.8
20260504195350 17 360 6.4 0.0 0.00 0.00 0.00 90 1013.7
20260504194839 17 237 6.4 0.0 0.00 0.00 0.00 89 1013.6
20260504194331 17 360 6.4 0.0 0.00 0.00 0.00 89 1013.5
20260504193837 17 360 4.8 0.0 0.00 0.00 0.00 89 1013.5
20260504193329 17 360 4.8 0.0 0.00 0.00 0.00 89 1013.4
20260504192859 17 360 4.8 0.0 0.00 0.00 0.00 89 1013.2
20260504192408 17 360 6.4 0.0 0.00 0.00 0.00 89 1013.2
20260504191829 17 223 8.0 0.0 0.00 0.00 0.00 89 1013.2
20260504191340 17 360 8.0 0.0 0.00 0.00 0.00 88 1013.1
20260504190851 17 360 8.0 0.0 0.00 0.00 0.00 88 1013.2
20260504190341 17 360 8.0 0.0 0.00 0.00 0.00 88 1013.2
20260504185845 17 360 8.0 0.0 0.00 0.00 0.00 88 1013.1
20260504185332 17 270 8.0 0.0 0.00 0.00 0.00 87 1013.0
20260504184837 17 246 9.7 0.0 0.00 0.00 0.00 87 1013.0
20260504184347 17 360 9.7 0.0 0.00 0.00 0.00 87 1013.0
20260504183836 17 360 8.0 0.0 0.00 0.00 0.00 87 1013.0
20260504183342 17 360 8.0 0.0 0.00 0.00 0.00 87 1012.9
20260504182833 17 360 8.0 0.0 0.00 0.00 0.00 87 1012.9
20260504182343 17 245 8.0 0.0 0.00 0.00 0.00 86 1012.9
20260504181833 18 360 8.0 0.0 0.00 0.00 0.00 86 1012.8
20260504181344 18 240 8.0 0.0 0.00 0.00 0.00 86 1012.8
20260504180830 18 280 8.0 0.0 0.00 0.00 0.00 86 1012.6
20260504180340 18 360 8.0 0.0 0.00 0.00 0.00 86 1012.7
20260504175844 18 217 9.7 0.0 0.00 0.00 0.00 86 1012.7
20260504175335 18 228 9.7 0.0 0.00 0.00 0.00 85 1012.7
20260504174900 18 239 8.0 0.0 0.00 0.00 0.00 85 1012.8
20260504174329 18 251 8.0 0.0 0.00 0.00 0.00 85 1012.7
20260504173839 18 250 9.7 0.0 0.00 0.00 0.00 85 1012.8
20260504173331 18 290 9.7 0.0 0.00 0.00 0.00 84 1012.7
20260504172841 18 258 11.3 0.0 0.00 0.00 0.00 84 1012.8
20260504172331 18 242 9.7 0.0 0.00 0.00 0.00 83 1012.8
20260504171858 18 360 11.3 0.0 0.00 0.00 0.00 83 1012.8
20260504171344 18 360 11.3 0.0 0.00 0.00 0.00 82 1012.7
20260504170915 19 262 11.3 0.0 0.00 0.00 0.00 82 1012.6
20260504170335 19 238 11.3 0.0 0.00 0.00 0.00 83 1012.6
20260504160343 19 360 12.9 0.0 0.00 0.00 0.00 82 1012.5
20260504150834 20 238 12.9 0.0 0.00 0.00 0.00 78 1012.6
20260504150344 20 254 12.9 0.0 0.00 0.00 0.00 79 1012.7
20260504140845 20 248 9.7 0.0 0.00 0.00 0.00 84 1013.1
20260504140335 19 232 9.7 0.0 0.00 0.00 0.00 86 1013.1
20260504130352 20 281 9.7 0.0 0.00 0.00 0.00 83 1013.5
20260504110343 20 252 11.3 0.0 0.00 0.00 0.00 81 1013.7
20260504100330 21 222 3.2 0.0 0.00 0.00 0.00 77 1013.8
20260504081905 18 134 1.6 0.0 0.00 0.00 0.00 88 1013.8
20260504081335 18 110 1.6 0.0 0.00 0.00 0.00 89 1013.8
20260504080826 18 75 1.6 0.0 0.00 0.00 0.00 90 1013.8
20260504080332 18 91 1.6 0.0 0.00 0.00 0.00 90 1013.9
20260504070334 17 84 0.0 0.0 0.00 0.00 0.00 93 1013.6
20260504045850 16 360 0.0 0.0 0.00 0.00 0.00 93 1013.6